Location: Wanzleben
(52.0609°N, 11.4408°E)
Time: 05:32:42
(UTC+00:00)

N. Korean satellite - Visible Passes

Search period start: 25 November 2020 00:00
Search period end: 05 December 2020 00:00
Orbit: 452 x 504 km, 97.2° (Epoch: 24 November)

Date Brightness Start Highest point End Pass type
(mag) Time Alt. Az. Time Alt. Az. Time Alt. Az.
25 Nov 10.0 03:39:37 10° ENE 03:41:12 12° E 03:42:46 10° ESE visible
25 Nov 6.4 05:11:24 10° N 05:14:56 65° WNW 05:18:30 10° SSW visible
25 Nov 6.7 15:51:42 10° S 15:55:05 75° WSW 15:58:33 10° NNW visible
26 Nov 7.0 04:45:07 10° NNE 04:48:40 63° E 04:52:14 10° S visible
26 Nov 9.8 17:00:44 10° WSW 17:02:32 14° W 17:04:20 10° WNW visible
27 Nov 8.4 04:19:03 10° NNE 04:22:18 32° E 04:25:35 10° SSE visible
27 Nov 7.6 05:52:35 10° N 05:55:32 25° WNW 05:58:32 10° WSW visible
27 Nov 9.0 16:33:08 10° SSW 16:36:01 25° W 16:38:56 10° NW visible
28 Nov 9.5 03:53:21 10° NE 03:55:51 18° E 03:58:21 10° SE visible
28 Nov 6.8 05:25:58 10° N 05:29:24 45° WNW 05:32:52 10° SW visible
28 Nov 7.5 16:06:17 10° S 16:09:36 49° W 16:12:59 10° NNW visible
29 Nov 6.5 04:59:33 10° NNE 05:03:10 88° WNW 05:06:48 10° SSW visible
30 Nov 7.6 04:33:20 10° NNE 04:36:50 46° E 04:40:21 10° S visible
30 Nov 8.0 06:07:20 10° NNW 06:09:53 19° WNW 06:12:28 10° WSW visible
30 Nov 9.6 16:48:07 10° SW 16:50:33 18° W 16:53:01 10° NW visible
01 Dec 8.9 04:07:22 10° NE 04:10:23 24° E 04:13:26 10° SSE visible
01 Dec 7.3 05:40:32 10° N 05:43:46 32° WNW 05:47:02 10° SW visible
01 Dec 8.4 16:20:54 10° SSW 16:24:03 33° W 16:27:16 10° NNW visible
02 Dec 9.8 03:41:57 10° ENE 03:43:52 14° E 03:45:47 10° ESE visible
02 Dec 6.5 05:13:59 10° N 05:17:33 61° WNW 05:21:10 10° SSW visible
02 Dec 6.9 15:54:14 10° S 15:57:39 69° WSW 16:01:09 10° NNW visible
03 Dec 6.9 04:47:37 10° NNE 04:51:16 68° ESE 04:54:54 10° S visible
03 Dec 8.3 06:22:11 10° NNW 06:24:09 14° WNW 06:26:06 10° W visible
03 Dec 9.9 17:03:24 10° WSW 17:05:04 13° W 17:06:44 10° WNW visible
04 Dec 8.3 04:21:29 10° NNE 04:24:51 34° E 04:28:14 10° SSE visible
04 Dec 7.7 05:55:06 10° N 05:58:03 24° WNW 06:01:01 10° WSW visible
04 Dec 9.1 16:35:39 10° SSW 16:38:29 24° W 16:41:23 10° NW visible
